contact:dominique.lefevre@mio.osupytheas.fr, maurice.libes@osupytheas.fr, didier.mallarino@osupytheas.fr
Project:EMSO http://www.emso-fr.org/EMSO-France
Depth: 2436.0 m
Title:EMSO Ligure Ouest : Data MII capteur CSTAR
DateTime,Latitude,Longitude,Instrument_Serial,Reference_Counts,Signal_Counts,Corrected_Signal_raw_counts,Calculated_Beam_c_inverse_meters,Internal_thermistor_counts
DateTime,Latitude,Longitude,Instrument_Serial,Reference_Counts,Signal_Counts,Corrected_Signal_raw_counts,Calculated_Beam_c_inverse_meters,Internal_thermistor_counts
2021-12-27T00:01:31,42.805,6.029,CST-1368DR,5013,6423,13696,0.525,551
2021-12-27T00:04:32,42.805,6.029,CST-1368DR,5013,6425,13700,0.524,551
2021-12-27T00:07:34,42.805,6.029,CST-1368DR,5013,6425,13699,0.524,551
2021-12-27T00:10:36,42.805,6.029,CST-1368DR,5013,6425,13699,0.524,551
2021-12-27T00:13:37,42.805,6.029,CST-1368DR,5013,6424,13698,0.524,551
2021-12-27T00:16:39,42.805,6.029,CST-1368DR,5013,6425,13700,0.524,551
2021-12-27T00:19:40,42.805,6.029,CST-1368DR,5013,6426,13701,0.523,551
2021-12-27T00:22:42,42.805,6.029,CST-1368DR,5013,6424,13698,0.524,551
2021-12-27T00:25:43,42.805,6.029,CST-1368DR,5013,6424,13698,0.524,551
2021-12-27T00:28:45,42.805,6.029,CST-1368DR,5013,6426,13701,0.523,551
2021-12-27T00:31:47,42.805,6.029,CST-1368DR,5013,6425,13699,0.524,551
2021-12-27T00:34:48,42.805,6.029,CST-1368DR,5013,6424,13698,0.524,551
2021-12-27T00:37:50,42.805,6.029,CST-1368DR,5013,6424,13697,0.524,551
2021-12-27T00:40:51,42.805,6.029,CST-1368DR,5013,6425,13699,0.524,551
2021-12-27T00:43:53,42.805,6.029,CST-1368DR,5013,6426,13701,0.523,551
2021-12-27T00:46:55,42.805,6.029,CST-1368DR,5013,6424,13698,0.524,551
2021-12-27T00:49:56,42.805,6.029,CST-1368DR,5013,6424,13698,0.524,551
2021-12-27T00:52:58,42.805,6.029,CST-1368DR,5013,6425,13699,0.524,551
2021-12-27T00:55:59,42.805,6.029,CST-1368DR,5013,6424,13698,0.524,551
2021-12-27T00:59:01,42.805,6.029,CST-1368DR,5013,6424,13698,0.524,551
2021-12-27T01:02:02,42.805,6.029,CST-1368DR,5013,6425,13700,0.524,551
2021-12-27T01:05:04,42.805,6.029,CST-1368DR,5013,6424,13698,0.524,551
2021-12-27T01:08:06,42.805,6.029,CST-1368DR,5013,6425,13699,0.524,551
2021-12-27T01:11:07,42.805,6.029,CST-1368DR,5013,6425,13699,0.524,551
2021-12-27T01:14:09,42.805,6.029,CST-1368DR,5013,6424,13697,0.524,551
2021-12-27T01:17:10,42.805,6.029,CST-1368DR,5013,6425,13699,0.524,551
2021-12-27T01:20:12,42.805,6.029,CST-1368DR,5013,6425,13699,0.524,551
2021-12-27T01:23:14,42.805,6.029,CST-1368DR,5013,6425,13699,0.524,551
2021-12-27T01:26:15,42.805,6.029,CST-1368DR,5013,6424,13698,0.524,551
2021-12-27T01:29:17,42.805,6.029,CST-1368DR,5013,6424,13698,0.524,551
2021-12-27T01:32:18,42.805,6.029,CST-1368DR,5013,6424,13697,0.524,551
2021-12-27T01:35:20,42.805,6.029,CST-1368DR,5013,6422,13694,0.525,551
2021-12-27T01:38:21,42.805,6.029,CST-1368DR,5013,6424,13698,0.524,551
2021-12-27T01:41:23,42.805,6.029,CST-1368DR,5013,6424,13698,0.524,551
2021-12-27T01:44:25,42.805,6.029,CST-1368DR,5013,6423,13696,0.525,551
2021-12-27T01:47:26,42.805,6.029,CST-1368DR,5013,6424,13698,0.524,551
2021-12-27T01:50:28,42.805,6.029,CST-1368DR,5013,6424,13697,0.524,551
2021-12-27T01:53:29,42.805,6.029,CST-1368DR,5013,6424,13698,0.524,551
2021-12-27T01:56:31,42.805,6.029,CST-1368DR,5013,6424,13698,0.524,551
2021-12-27T01:59:33,42.805,6.029,CST-1368DR,5013,6424,13698,0.524,551
2021-12-27T02:02:34,42.805,6.029,CST-1368DR,5013,6424,13698,0.524,551
2021-12-27T02:05:36,42.805,6.029,CST-1368DR,5013,6424,13698,0.524,551
2021-12-27T02:08:37,42.805,6.029,CST-1368DR,5013,6424,13697,0.524,550
2021-12-27T02:11:39,42.805,6.029,CST-1368DR,5013,6424,13697,0.524,551
2021-12-27T02:14:40,42.805,6.029,CST-1368DR,5013,6424,13698,0.524,551
2021-12-27T02:17:42,42.805,6.029,CST-1368DR,5013,6424,13697,0.524,551
2021-12-27T02:20:44,42.805,6.029,CST-1368DR,5013,6425,13699,0.524,551
2021-12-27T02:23:45,42.805,6.029,CST-1368DR,5013,6424,13698,0.524,551
2021-12-27T02:26:47,42.805,6.029,CST-1368DR,5013,6424,13698,0.524,551
2021-12-27T02:29:48,42.805,6.029,CST-1368DR,5013,6423,13696,0.525,551
2021-12-27T02:32:50,42.805,6.029,CST-1368DR,5013,6424,13697,0.524,551
2021-12-27T02:35:52,42.805,6.029,CST-1368DR,5013,6422,13694,0.525,551
2021-12-27T02:38:53,42.805,6.029,CST-1368DR,5013,6424,13698,0.524,551
2021-12-27T02:41:55,42.805,6.029,CST-1368DR,5013,6424,13698,0.524,551
2021-12-27T02:44:56,42.805,6.029,CST-1368DR,5013,6423,13696,0.525,551
2021-12-27T02:47:58,42.805,6.029,CST-1368DR,5013,6423,13694,0.525,551
2021-12-27T02:50:59,42.805,6.029,CST-1368DR,5013,6421,13691,0.526,551
2021-12-27T02:54:01,42.805,6.029,CST-1368DR,5013,6423,13695,0.525,551
2021-12-27T02:57:03,42.805,6.029,CST-1368DR,5013,6421,13691,0.526,551
2021-12-27T03:00:04,42.805,6.029,CST-1368DR,5013,6424,13697,0.524,551
2021-12-27T03:03:06,42.805,6.029,CST-1368DR,5013,6423,13696,0.525,551
2021-12-27T03:06:07,42.805,6.029,CST-1368DR,5013,6423,13695,0.525,551
2021-12-27T03:09:09,42.805,6.029,CST-1368DR,5013,6420,13690,0.527,551
2021-12-27T03:12:10,42.805,6.029,CST-1368DR,5013,6423,13696,0.525,551
2021-12-27T03:15:12,42.805,6.029,CST-1368DR,5013,6423,13695,0.525,551
2021-12-27T03:18:14,42.805,6.029,CST-1368DR,5013,6421,13692,0.526,551
2021-12-27T03:21:15,42.805,6.029,CST-1368DR,5013,6424,13697,0.524,551
2021-12-27T03:24:17,42.805,6.029,CST-1368DR,5013,6421,13691,0.526,551
2021-12-27T03:27:18,42.805,6.029,CST-1368DR,5013,6423,13694,0.525,551
2021-12-27T03:30:20,42.805,6.029,CST-1368DR,5013,6424,13698,0.524,551
2021-12-27T03:33:22,42.805,6.029,CST-1368DR,5013,6423,13696,0.525,551
2021-12-27T03:36:23,42.805,6.029,CST-1368DR,5013,6424,13697,0.524,551
2021-12-27T03:39:25,42.805,6.029,CST-1368DR,5013,6423,13696,0.525,551
2021-12-27T03:42:26,42.805,6.029,CST-1368DR,5013,6424,13697,0.524,551
2021-12-27T03:45:28,42.805,6.029,CST-1368DR,5013,6421,13691,0.526,551
2021-12-27T03:48:29,42.805,6.029,CST-1368DR,5013,6423,13694,0.525,551
2021-12-27T03:51:31,42.805,6.029,CST-1368DR,5013,6422,13694,0.525,551
2021-12-27T03:54:33,42.805,6.029,CST-1368DR,5012,6423,13698,0.524,551
2021-12-27T03:57:34,42.805,6.029,CST-1368DR,5012,6424,13700,0.524,551
2021-12-27T04:00:36,42.805,6.029,CST-1368DR,5013,6423,13694,0.525,551
2021-12-27T04:03:37,42.805,6.029,CST-1368DR,5013,6423,13694,0.525,551
2021-12-27T04:06:39,42.805,6.029,CST-1368DR,5013,6423,13694,0.525,551
2021-12-27T04:09:40,42.805,6.029,CST-1368DR,5012,6421,13694,0.525,551
2021-12-27T04:12:42,42.805,6.029,CST-1368DR,5013,6421,13691,0.526,551
2021-12-27T04:15:44,42.805,6.029,CST-1368DR,5013,6422,13694,0.525,551
2021-12-27T04:18:45,42.805,6.029,CST-1368DR,5013,6419,13688,0.527,551
2021-12-27T04:21:47,42.805,6.029,CST-1368DR,5013,6423,13694,0.525,551
2021-12-27T04:24:48,42.805,6.029,CST-1368DR,5013,6421,13691,0.526,551
2021-12-27T04:27:50,42.805,6.029,CST-1368DR,5012,6422,13695,0.525,551
2021-12-27T04:30:52,42.805,6.029,CST-1368DR,5013,6420,13690,0.527,551
2021-12-27T04:33:53,42.805,6.029,CST-1368DR,5013,6422,13692,0.526,551
2021-12-27T04:36:55,42.805,6.029,CST-1368DR,5012,6420,13692,0.526,551
2021-12-27T04:39:56,42.805,6.029,CST-1368DR,5013,6420,13689,0.527,551
2021-12-27T04:42:58,42.805,6.029,CST-1368DR,5012,6423,13699,0.524,551
2021-12-27T04:45:59,42.805,6.029,CST-1368DR,5012,6420,13692,0.526,551
2021-12-27T04:49:01,42.805,6.029,CST-1368DR,5012,6423,13697,0.524,551
2021-12-27T04:52:03,42.805,6.029,CST-1368DR,5013,6422,13694,0.525,551
2021-12-27T04:55:04,42.805,6.029,CST-1368DR,5012,6421,13693,0.526,551
2021-12-27T04:58:06,42.805,6.029,CST-1368DR,5012,6422,13697,0.524,551
2021-12-27T05:01:07,42.805,6.029,CST-1368DR,5012,6422,13695,0.525,551
2021-12-27T05:04:09,42.805,6.029,CST-1368DR,5012,6423,13697,0.524,551
2021-12-27T05:07:11,42.805,6.029,CST-1368DR,5013,6422,13693,0.526,551
2021-12-27T05:10:12,42.805,6.029,CST-1368DR,5012,6416,13684,0.528,551
2021-12-27T05:13:14,42.805,6.029,CST-1368DR,5012,6422,13697,0.524,551
2021-12-27T05:16:15,42.805,6.029,CST-1368DR,5012,6421,13694,0.525,551
2021-12-27T05:19:17,42.805,6.029,CST-1368DR,5012,6421,13693,0.526,551
2021-12-27T05:22:18,42.805,6.029,CST-1368DR,5012,6421,13693,0.526,551
2021-12-27T05:25:20,42.805,6.029,CST-1368DR,5012,6421,13694,0.525,551
2021-12-27T05:28:22,42.805,6.029,CST-1368DR,5012,6419,13690,0.527,551
2021-12-27T05:31:23,42.805,6.029,CST-1368DR,5012,6420,13692,0.526,551
2021-12-27T05:34:25,42.805,6.029,CST-1368DR,5012,6420,13691,0.526,551
2021-12-27T05:37:26,42.805,6.029,CST-1368DR,5012,6421,13694,0.525,551
2021-12-27T05:40:28,42.805,6.029,CST-1368DR,5012,6422,13695,0.525,551
2021-12-27T05:43:29,42.805,6.029,CST-1368DR,5012,6421,13693,0.526,551
2021-12-27T05:46:31,42.805,6.029,CST-1368DR,5012,6422,13695,0.525,551
2021-12-27T05:49:33,42.805,6.029,CST-1368DR,5012,6422,13695,0.525,551
2021-12-27T05:52:34,42.805,6.029,CST-1368DR,5012,6422,13695,0.525,551
2021-12-27T05:55:36,42.805,6.029,CST-1368DR,5012,6422,13695,0.525,551
2021-12-27T05:58:37,42.805,6.029,CST-1368DR,5012,6421,13693,0.526,551
2021-12-27T06:01:39,42.805,6.029,CST-1368DR,5012,6421,13694,0.525,551
2021-12-27T06:04:41,42.805,6.029,CST-1368DR,5012,6421,13694,0.525,551
2021-12-27T06:07:42,42.805,6.029,CST-1368DR,5012,6421,13694,0.525,551
2021-12-27T06:10:44,42.805,6.029,CST-1368DR,5012,6420,13692,0.526,551
2021-12-27T06:13:45,42.805,6.029,CST-1368DR,5012,6421,13693,0.526,551
2021-12-27T06:16:47,42.805,6.029,CST-1368DR,5012,6420,13691,0.526,551
2021-12-27T06:19:48,42.805,6.029,CST-1368DR,5012,6420,13691,0.526,551
2021-12-27T06:22:50,42.805,6.029,CST-1368DR,5012,6419,13689,0.527,551
2021-12-27T06:25:52,42.805,6.029,CST-1368DR,5012,6421,13693,0.526,551
2021-12-27T06:28:53,42.805,6.029,CST-1368DR,5012,6420,13692,0.526,551
2021-12-27T06:31:55,42.805,6.029,CST-1368DR,5012,6417,13684,0.528,551
2021-12-27T06:34:56,42.805,6.029,CST-1368DR,5012,6419,13690,0.527,551
2021-12-27T06:37:58,42.805,6.029,CST-1368DR,5012,6421,13693,0.526,551
2021-12-27T06:41:00,42.805,6.029,CST-1368DR,5012,6421,13693,0.526,551
2021-12-27T06:44:01,42.805,6.029,CST-1368DR,5012,6417,13686,0.528,551
2021-12-27T06:47:03,42.805,6.029,CST-1368DR,5012,6421,13693,0.526,551
2021-12-27T06:50:04,42.805,6.029,CST-1368DR,5012,6419,13690,0.527,551
2021-12-27T06:53:06,42.805,6.029,CST-1368DR,5012,6421,13694,0.525,551
2021-12-27T06:56:07,42.805,6.029,CST-1368DR,5012,6421,13693,0.526,551
2021-12-27T06:59:09,42.805,6.029,CST-1368DR,5012,6421,13694,0.525,551
2021-12-27T07:02:11,42.805,6.029,CST-1368DR,5012,6421,13694,0.525,551
2021-12-27T07:05:12,42.805,6.029,CST-1368DR,5012,6421,13693,0.526,551
2021-12-27T07:08:14,42.805,6.029,CST-1368DR,5012,6421,13694,0.525,551
2021-12-27T07:11:15,42.805,6.029,CST-1368DR,5012,6421,13693,0.526,551
2021-12-27T07:14:17,42.805,6.029,CST-1368DR,5012,6420,13692,0.526,551
2021-12-27T07:17:19,42.805,6.029,CST-1368DR,5012,6417,13685,0.528,551
2021-12-27T07:20:20,42.805,6.029,CST-1368DR,5012,6421,13693,0.526,550
2021-12-27T07:23:22,42.805,6.029,CST-1368DR,5012,6420,13691,0.526,551
2021-12-27T07:26:23,42.805,6.029,CST-1368DR,5012,6421,13693,0.526,551
2021-12-27T07:29:25,42.805,6.029,CST-1368DR,5012,6421,13693,0.526,551
2021-12-27T07:32:26,42.805,6.029,CST-1368DR,5012,6420,13691,0.526,551
2021-12-27T07:35:28,42.805,6.029,CST-1368DR,5012,6419,13690,0.527,551
2021-12-27T07:38:30,42.805,6.029,CST-1368DR,5012,6420,13692,0.526,551
2021-12-27T07:41:31,42.805,6.029,CST-1368DR,5012,6421,13693,0.526,551
2021-12-27T07:44:33,42.805,6.029,CST-1368DR,5012,6420,13692,0.526,551
2021-12-27T07:47:34,42.805,6.029,CST-1368DR,5012,6421,13693,0.526,551
2021-12-27T07:50:36,42.805,6.029,CST-1368DR,5012,6421,13693,0.526,551
2021-12-27T07:53:37,42.805,6.029,CST-1368DR,5012,6421,13693,0.526,551
2021-12-27T07:56:39,42.805,6.029,CST-1368DR,5012,6421,13694,0.525,551
2021-12-27T07:59:41,42.805,6.029,CST-1368DR,5012,6421,13694,0.525,551
2021-12-27T08:02:42,42.805,6.029,CST-1368DR,5012,6421,13693,0.526,551
2021-12-27T08:05:44,42.805,6.029,CST-1368DR,5012,6421,13694,0.525,551
2021-12-27T08:08:45,42.805,6.029,CST-1368DR,5012,6421,13693,0.526,551
2021-12-27T08:11:47,42.805,6.029,CST-1368DR,5012,6421,13694,0.525,551
2021-12-27T08:14:49,42.805,6.029,CST-1368DR,5012,6419,13690,0.527,551
2021-12-27T08:17:50,42.805,6.029,CST-1368DR,5012,6420,13692,0.526,551
2021-12-27T08:20:52,42.805,6.029,CST-1368DR,5012,6421,13693,0.526,551
2021-12-27T08:23:53,42.805,6.029,CST-1368DR,5012,6421,13694,0.525,551
2021-12-27T08:26:55,42.805,6.029,CST-1368DR,5012,6419,13690,0.527,551
2021-12-27T08:29:56,42.805,6.029,CST-1368DR,5012,6420,13692,0.526,551
2021-12-27T08:32:58,42.805,6.029,CST-1368DR,5012,6421,13693,0.526,551
2021-12-27T08:36:00,42.805,6.029,CST-1368DR,5012,6420,13691,0.526,551
2021-12-27T08:39:01,42.805,6.029,CST-1368DR,5012,6419,13690,0.527,551
2021-12-27T08:42:03,42.805,6.029,CST-1368DR,5012,6420,13691,0.526,551
2021-12-27T08:45:04,42.805,6.029,CST-1368DR,5012,6420,13692,0.526,551
2021-12-27T08:48:06,42.805,6.029,CST-1368DR,5012,6420,13691,0.526,551
2021-12-27T08:51:08,42.805,6.029,CST-1368DR,5012,6421,13693,0.526,551
2021-12-27T08:54:09,42.805,6.029,CST-1368DR,5012,6420,13692,0.526,551
2021-12-27T08:57:11,42.805,6.029,CST-1368DR,5012,6419,13690,0.527,551
2021-12-27T09:00:12,42.805,6.029,CST-1368DR,5012,6420,13691,0.526,551
2021-12-27T09:03:14,42.805,6.029,CST-1368DR,5012,6420,13691,0.526,551
2021-12-27T09:06:15,42.805,6.029,CST-1368DR,5012,6419,13690,0.527,551
2021-12-27T09:09:17,42.805,6.029,CST-1368DR,5012,6419,13690,0.527,551
2021-12-27T09:12:19,42.805,6.029,CST-1368DR,5012,6420,13691,0.526,551
2021-12-27T09:15:20,42.805,6.029,CST-1368DR,5012,6420,13692,0.526,551
2021-12-27T09:18:22,42.805,6.029,CST-1368DR,5012,6420,13691,0.526,551
2021-12-27T09:21:23,42.805,6.029,CST-1368DR,5012,6421,13693,0.526,551
2021-12-27T09:24:25,42.805,6.029,CST-1368DR,5012,6420,13692,0.526,551
2021-12-27T09:27:26,42.805,6.029,CST-1368DR,5012,6420,13692,0.526,551
2021-12-27T09:30:28,42.805,6.029,CST-1368DR,5012,6420,13692,0.526,551
2021-12-27T09:33:30,42.805,6.029,CST-1368DR,5012,6420,13692,0.526,551
2021-12-27T09:36:31,42.805,6.029,CST-1368DR,5012,6420,13692,0.526,551
2021-12-27T09:39:33,42.805,6.029,CST-1368DR,5012,6420,13691,0.526,551
2021-12-27T09:42:34,42.805,6.029,CST-1368DR,5012,6419,13689,0.527,551
2021-12-27T09:45:36,42.805,6.029,CST-1368DR,5012,6418,13688,0.527,551
2021-12-27T09:48:38,42.805,6.029,CST-1368DR,5012,6417,13684,0.528,551
2021-12-27T09:51:39,42.805,6.029,CST-1368DR,5012,6420,13691,0.526,551
2021-12-27T09:54:41,42.805,6.029,CST-1368DR,5012,6418,13687,0.527,551
2021-12-27T09:57:42,42.805,6.029,CST-1368DR,5012,6419,13690,0.527,551
2021-12-27T10:00:44,42.805,6.029,CST-1368DR,5012,6420,13691,0.526,551
2021-12-27T10:03:45,42.805,6.029,CST-1368DR,5012,6420,13692,0.526,551
2021-12-27T10:06:47,42.805,6.029,CST-1368DR,5012,6420,13692,0.526,551
2021-12-27T10:09:49,42.805,6.029,CST-1368DR,5012,6420,13691,0.526,551
2021-12-27T10:12:50,42.805,6.029,CST-1368DR,5012,6420,13691,0.526,551
2021-12-27T10:15:52,42.805,6.029,CST-1368DR,5012,6420,13691,0.526,551
2021-12-27T10:18:53,42.805,6.029,CST-1368DR,5012,6419,13690,0.527,551
2021-12-27T10:21:55,42.805,6.029,CST-1368DR,5012,6420,13692,0.526,551
2021-12-27T10:24:56,42.805,6.029,CST-1368DR,5012,6420,13691,0.526,551
2021-12-27T10:27:58,42.805,6.029,CST-1368DR,5012,6419,13690,0.527,551
2021-12-27T10:31:00,42.805,6.029,CST-1368DR,5012,6418,13687,0.527,551
2021-12-27T10:34:01,42.805,6.029,CST-1368DR,5012,6420,13692,0.526,551
2021-12-27T10:37:03,42.805,6.029,CST-1368DR,5012,6420,13692,0.526,551
2021-12-27T10:40:04,42.805,6.029,CST-1368DR,5012,6420,13692,0.526,551
2021-12-27T10:43:06,42.805,6.029,CST-1368DR,5012,6420,13691,0.526,551
2021-12-27T10:46:08,42.805,6.029,CST-1368DR,5012,6420,13692,0.526,551
2021-12-27T10:49:09,42.805,6.029,CST-1368DR,5012,6418,13687,0.527,551
2021-12-27T10:52:11,42.805,6.029,CST-1368DR,5012,6418,13688,0.527,551
2021-12-27T10:55:12,42.805,6.029,CST-1368DR,5012,6420,13691,0.526,551
2021-12-27T10:58:14,42.805,6.029,CST-1368DR,5012,6420,13691,0.526,551
2021-12-27T11:01:15,42.805,6.029,CST-1368DR,5012,6421,13693,0.526,551
2021-12-27T11:04:17,42.805,6.029,CST-1368DR,5012,6419,13690,0.527,551
2021-12-27T11:07:19,42.805,6.029,CST-1368DR,5012,6417,13685,0.528,551
2021-12-27T11:10:20,42.805,6.029,CST-1368DR,5012,6420,13691,0.526,551
2021-12-27T11:13:22,42.805,6.029,CST-1368DR,5012,6420,13692,0.526,551
2021-12-27T11:16:23,42.805,6.029,CST-1368DR,5012,6420,13692,0.526,551
2021-12-27T11:19:25,42.805,6.029,CST-1368DR,5012,6420,13691,0.526,551
2021-12-27T11:22:27,42.805,6.029,CST-1368DR,5012,6420,13692,0.526,551
2021-12-27T11:25:28,42.805,6.029,CST-1368DR,5012,6418,13686,0.528,551
2021-12-27T11:28:30,42.805,6.029,CST-1368DR,5012,6419,13689,0.527,551
2021-12-27T11:31:31,42.805,6.029,CST-1368DR,5012,6421,13693,0.526,551
2021-12-27T11:34:33,42.805,6.029,CST-1368DR,5012,6420,13691,0.526,551
2021-12-27T11:37:34,42.805,6.029,CST-1368DR,5012,6420,13692,0.526,551
2021-12-27T11:40:36,42.805,6.029,CST-1368DR,5012,6420,13692,0.526,551
2021-12-27T11:43:38,42.805,6.029,CST-1368DR,5012,6419,13690,0.527,551
2021-12-27T11:46:39,42.805,6.029,CST-1368DR,5012,6420,13691,0.526,551
2021-12-27T11:49:41,42.805,6.029,CST-1368DR,5012,6420,13691,0.526,551
2021-12-27T11:52:42,42.805,6.029,CST-1368DR,5012,6420,13691,0.526,551
2021-12-27T11:55:44,42.805,6.029,CST-1368DR,5012,6418,13687,0.527,551
2021-12-27T11:58:46,42.805,6.029,CST-1368DR,5012,6419,13690,0.527,551
2021-12-27T12:01:47,42.805,6.029,CST-1368DR,5012,6421,13693,0.526,551
2021-12-27T12:04:49,42.805,6.029,CST-1368DR,5012,6420,13691,0.526,551
2021-12-27T12:07:50,42.805,6.029,CST-1368DR,5012,6420,13692,0.526,551
2021-12-27T12:10:52,42.805,6.029,CST-1368DR,5012,6419,13689,0.527,551
2021-12-27T12:13:53,42.805,6.029,CST-1368DR,5012,6420,13692,0.526,551
2021-12-27T12:16:55,42.805,6.029,CST-1368DR,5012,6420,13692,0.526,551
2021-12-27T12:19:57,42.805,6.029,CST-1368DR,5012,6420,13692,0.526,551
2021-12-27T12:22:58,42.805,6.029,CST-1368DR,5012,6420,13692,0.526,551
2021-12-27T12:26:00,42.805,6.029,CST-1368DR,5012,6420,13692,0.526,551
2021-12-27T12:29:01,42.805,6.029,CST-1368DR,5012,6420,13691,0.526,551
2021-12-27T12:32:03,42.805,6.029,CST-1368DR,5012,6421,13693,0.526,551
2021-12-27T12:35:04,42.805,6.029,CST-1368DR,5012,6420,13691,0.526,551
2021-12-27T12:38:06,42.805,6.029,CST-1368DR,5012,6421,13693,0.526,550
2021-12-27T12:41:08,42.805,6.029,CST-1368DR,5012,6419,13690,0.527,551
2021-12-27T12:44:09,42.805,6.029,CST-1368DR,5012,6420,13691,0.526,551
2021-12-27T12:47:11,42.805,6.029,CST-1368DR,5012,6419,13690,0.527,551
2021-12-27T12:50:12,42.805,6.029,CST-1368DR,5012,6419,13689,0.527,551
2021-12-27T12:53:14,42.805,6.029,CST-1368DR,5012,6418,13687,0.527,551
2021-12-27T12:56:16,42.805,6.029,CST-1368DR,5012,6420,13692,0.526,551
2021-12-27T12:59:17,42.805,6.029,CST-1368DR,5012,6420,13691,0.526,551
2021-12-27T13:02:19,42.805,6.029,CST-1368DR,5012,6420,13691,0.526,551
2021-12-27T13:05:20,42.805,6.029,CST-1368DR,5012,6419,13690,0.527,551
2021-12-27T13:08:22,42.805,6.029,CST-1368DR,5012,6420,13692,0.526,551
2021-12-27T13:11:23,42.805,6.029,CST-1368DR,5012,6419,13690,0.527,551
2021-12-27T13:14:25,42.805,6.029,CST-1368DR,5012,6420,13692,0.526,551
2021-12-27T13:17:27,42.805,6.029,CST-1368DR,5012,6421,13693,0.526,551
2021-12-27T13:20:28,42.805,6.029,CST-1368DR,5012,6421,13694,0.525,551
2021-12-27T13:23:30,42.805,6.029,CST-1368DR,5012,6420,13691,0.526,551
2021-12-27T13:26:31,42.805,6.029,CST-1368DR,5012,6421,13693,0.526,551
2021-12-27T13:29:33,42.805,6.029,CST-1368DR,5012,6418,13688,0.527,551
2021-12-27T13:32:35,42.805,6.029,CST-1368DR,5012,6420,13691,0.526,550
2021-12-27T13:35:36,42.805,6.029,CST-1368DR,5012,6420,13692,0.526,551
2021-12-27T13:38:38,42.805,6.029,CST-1368DR,5012,6420,13691,0.526,551
2021-12-27T13:41:39,42.805,6.029,CST-1368DR,5012,6421,13693,0.526,551
2021-12-27T13:44:41,42.805,6.029,CST-1368DR,5012,6418,13687,0.527,551
2021-12-27T13:47:42,42.805,6.029,CST-1368DR,5012,6420,13691,0.526,551
2021-12-27T13:50:44,42.805,6.029,CST-1368DR,5012,6419,13690,0.527,551
2021-12-27T13:53:46,42.805,6.029,CST-1368DR,5012,6420,13691,0.526,551
2021-12-27T13:56:47,42.805,6.029,CST-1368DR,5012,6419,13689,0.527,551
2021-12-27T13:59:49,42.805,6.029,CST-1368DR,5012,6419,13690,0.527,551
2021-12-27T14:02:50,42.805,6.029,CST-1368DR,5012,6420,13691,0.526,551
2021-12-27T14:05:52,42.805,6.029,CST-1368DR,5012,6419,13689,0.527,551
2021-12-27T14:08:53,42.805,6.029,CST-1368DR,5012,6419,13690,0.527,551
2021-12-27T14:11:55,42.805,6.029,CST-1368DR,5012,6420,13692,0.526,551
2021-12-27T14:14:57,42.805,6.029,CST-1368DR,5012,6420,13692,0.526,551
2021-12-27T14:17:58,42.805,6.029,CST-1368DR,5012,6420,13691,0.526,551
2021-12-27T14:21:00,42.805,6.029,CST-1368DR,5012,6419,13690,0.527,551
2021-12-27T14:24:01,42.805,6.029,CST-1368DR,5012,6420,13691,0.526,551
2021-12-27T14:27:03,42.805,6.029,CST-1368DR,5012,6420,13692,0.526,551
2021-12-27T14:30:05,42.805,6.029,CST-1368DR,5012,6420,13691,0.526,551
2021-12-27T14:33:06,42.805,6.029,CST-1368DR,5012,6419,13690,0.527,551
2021-12-27T14:36:08,42.805,6.029,CST-1368DR,5012,6420,13692,0.526,551
2021-12-27T14:39:09,42.805,6.029,CST-1368DR,5012,6418,13688,0.527,551
2021-12-27T14:42:11,42.805,6.029,CST-1368DR,5012,6419,13690,0.527,551
2021-12-27T14:45:12,42.805,6.029,CST-1368DR,5012,6420,13691,0.526,551
2021-12-27T14:48:14,42.805,6.029,CST-1368DR,5012,6419,13690,0.527,551
2021-12-27T14:51:16,42.805,6.029,CST-1368DR,5012,6419,13690,0.527,551
2021-12-27T14:54:17,42.805,6.029,CST-1368DR,5012,6420,13691,0.526,551
2021-12-27T14:57:19,42.805,6.029,CST-1368DR,5012,6419,13690,0.527,551
2021-12-27T15:00:20,42.805,6.029,CST-1368DR,5012,6420,13691,0.526,551
2021-12-27T15:03:22,42.805,6.029,CST-1368DR,5012,6419,13689,0.527,551
2021-12-27T15:06:24,42.805,6.029,CST-1368DR,5012,6420,13691,0.526,551
2021-12-27T15:09:25,42.805,6.029,CST-1368DR,5012,6418,13688,0.527,551
2021-12-27T15:12:27,42.805,6.029,CST-1368DR,5012,6420,13691,0.526,551
2021-12-27T15:15:28,42.805,6.029,CST-1368DR,5012,6419,13689,0.527,551
2021-12-27T15:18:30,42.805,6.029,CST-1368DR,5012,6419,13689,0.527,551
2021-12-27T15:21:31,42.805,6.029,CST-1368DR,5012,6419,13690,0.527,551
2021-12-27T15:24:33,42.805,6.029,CST-1368DR,5012,6418,13688,0.527,551
2021-12-27T15:27:35,42.805,6.029,CST-1368DR,5012,6419,13690,0.527,551
2021-12-27T15:30:36,42.805,6.029,CST-1368DR,5012,6419,13690,0.527,551
2021-12-27T15:33:38,42.805,6.029,CST-1368DR,5012,6418,13688,0.527,551
2021-12-27T15:36:39,42.805,6.029,CST-1368DR,5012,6419,13690,0.527,551
2021-12-27T15:39:41,42.805,6.029,CST-1368DR,5012,6419,13690,0.527,551
2021-12-27T15:42:42,42.805,6.029,CST-1368DR,5012,6419,13690,0.527,551
2021-12-27T15:45:44,42.805,6.029,CST-1368DR,5012,6418,13688,0.527,551
2021-12-27T15:48:46,42.805,6.029,CST-1368DR,5012,6417,13685,0.528,551
2021-12-27T15:51:47,42.805,6.029,CST-1368DR,5012,6419,13690,0.527,551
2021-12-27T15:54:49,42.805,6.029,CST-1368DR,5012,6419,13690,0.527,551
2021-12-27T15:57:50,42.805,6.029,CST-1368DR,5012,6418,13688,0.527,550
2021-12-27T16:00:52,42.805,6.029,CST-1368DR,5012,6418,13688,0.527,551
2021-12-27T16:03:54,42.805,6.029,CST-1368DR,5012,6418,13686,0.528,551
2021-12-27T16:06:55,42.805,6.029,CST-1368DR,5012,6418,13688,0.527,551
2021-12-27T16:09:57,42.805,6.029,CST-1368DR,5012,6418,13688,0.527,551
2021-12-27T16:12:58,42.805,6.029,CST-1368DR,5012,6418,13688,0.527,551
2021-12-27T16:16:00,42.805,6.029,CST-1368DR,5012,6419,13690,0.527,551
2021-12-27T16:19:01,42.805,6.029,CST-1368DR,5012,6419,13690,0.527,551
2021-12-27T16:22:03,42.805,6.029,CST-1368DR,5012,6419,13689,0.527,551
2021-12-27T16:25:05,42.805,6.029,CST-1368DR,5012,6419,13689,0.527,551
2021-12-27T16:28:06,42.805,6.029,CST-1368DR,5012,6418,13688,0.527,551
2021-12-27T16:31:08,42.805,6.029,CST-1368DR,5012,6419,13689,0.527,551
2021-12-27T16:34:09,42.805,6.029,CST-1368DR,5012,6419,13689,0.527,551
2021-12-27T16:37:11,42.805,6.029,CST-1368DR,5012,6418,13687,0.527,551
2021-12-27T16:40:13,42.805,6.029,CST-1368DR,5012,6418,13688,0.527,551
2021-12-27T16:43:14,42.805,6.029,CST-1368DR,5012,6418,13687,0.527,551
2021-12-27T16:46:16,42.805,6.029,CST-1368DR,5012,6416,13683,0.529,551
2021-12-27T16:49:17,42.805,6.029,CST-1368DR,5012,6419,13689,0.527,551
2021-12-27T16:52:19,42.805,6.029,CST-1368DR,5012,6419,13689,0.527,551